Regional Weather Roundup
Issued by NWS

Home | Current Version | Previous Version | Text Only | Print | Product List | Glossary Off
Versions: 1 2 3 4 5 6 7 8 9 10 11 12 13 14 15 16 17 18 19 20 21 22 23 24 25 26 27 28 29 30 31 32 33 34 35 36 37 38 39 40 41 42 43 44 45 46 47 48 49 50

000
ASUS43 KMKX 261221
RWRWI

WISCONSIN REGIONAL WEATHER ROUNDUP
NATIONAL WEATHER SERVICE MILWAUKEE/SULLIVAN WI
700 AM CDT MON SEP 26 2016

NOTE: "FAIR" INDICATES FEW OR NO CLOUDS BELOW 12,000 FEET WITH NO
SIGNIFICANT WEATHER AND/OR OBSTRUCTIONS TO VISIBILITY.

WIZ001-002-006>008-014>016-023>028-261300-
NORTHWEST WISCONSIN

CITY           SKY/WX    TMP DP  RH WIND       PRES   REMARKS
SUPERIOR ARPT  CLOUDY    51  47  86 W17       29.73S
6HR MIN TEMP:  50; 6HR MAX TEMP:  53; 6HR PCP:  0.02;

ASHLAND        LGT RAIN  50  47  89 SW17G26   29.69S
6HR MIN TEMP:  50; 6HR MAX TEMP:  54; 6HR PCP:  0.04;

HAYWARD        CLOUDY    49  46  90 W9        29.78S
6HR MIN TEMP:  49; 6HR MAX TEMP:  52; 6HR PCP:  0.15;

SIREN          CLOUDY    51  42  70 W13G22    29.83S
6HR MIN TEMP:  50; 6HR MAX TEMP:  52; 6HR PCP:  0.02;

CUMBERLAND     CLOUDY    50  41  71 W17       29.84S
RICE LAKE      CLOUDY    51  43  72 W9G18     29.85S
6HR MIN TEMP:  51; 6HR MAX TEMP:  53;

CHETEK         NOT AVBL
LADYSMITH      CLOUDY    51  45  79 SW17      29.82F
6HR MIN TEMP:  51; 6HR MAX TEMP:  52;

EAU CLAIRE     CLOUDY    50  44  80 W15       29.87S
6HR MIN TEMP:  50; 6HR MAX TEMP:  54;

MENOMONIE      PTCLDY    51  43  75 W16       29.89R
6HR MIN TEMP:  50; 6HR MAX TEMP:  55;

NEW RICHMOND   CLEAR     49  40  71 W16       29.90S
6HR MIN TEMP:  49; 6HR MAX TEMP:  53;

OSCEOLA        PTCLDY    50  41  72 W13G18    29.92S
6HR MIN TEMP:  50; 6HR MAX TEMP:  55;

$$

WIZ003>005-009-010-017-018-261300-
NORTH CENTRAL WISCONSIN

CITY           SKY/WX    TMP DP  RH WIND       PRES   REMARKS
MANITOWISH WTR NOT AVBL
ARBOR VITAE    DRIZZLE   49  48  94 W12G18    29.72S
6HR MIN TEMP:  49; 6HR MAX TEMP:  53;

WOODRUFF       DRIZZLE   49  48  94 W12G18    29.72S
6HR MIN TEMP:  49; 6HR MAX TEMP:  53;

RHINELANDER    LGT RAIN  48  48 100 W16G24    29.74F FOG
6HR MIN TEMP:  48; 6HR MAX TEMP:  52; 6HR PCP:  0.02;

EAGLE RIVER    DRIZZLE   48  47  98 W13G18    29.70F
6HR MIN TEMP:  48; 6HR MAX TEMP:  52;

LAND O LAKES   CLOUDY    49  46  91 W9G17     29.70S
6HR MIN TEMP:  48; 6HR MAX TEMP:  54;

PHILLIPS       LGT RAIN  47  46  97 W6        29.76S
6HR MIN TEMP:  47; 6HR MAX TEMP:  51; 6HR PCP:  0.01;

TOMAHAWK       LGT RAIN  47  45  90 W9G17     29.77S
6HR MIN TEMP:  47; 6HR MAX TEMP:  52;

MEDFORD        CLOUDY    49  45  84 W14G28    29.81S
6HR MIN TEMP:  48; 6HR MAX TEMP:  50;

MERRILL        CLOUDY    50  46  84 W15G22    29.79F
6HR MIN TEMP:  50; 6HR MAX TEMP:  55;

$$

WIZ029-030-035-036-043>047-261300-
CENTRAL WISCONSIN

CITY           SKY/WX    TMP DP  RH WIND       PRES   REMARKS
WAUSAU         CLOUDY    52  43  71 W20G26    29.79F
6HR MIN TEMP:  50; 6HR MAX TEMP:  54;

MOSINEE        MOCLDY    52  45  76 W17G24    29.83S
MARSHFIELD     CLEAR     50  42  74 W13G22    29.84S
6HR MIN TEMP:  50; 6HR MAX TEMP:  54;

STEVENS POINT  MOCLDY    50  43  78 SW9G20    29.85S
6HR MIN TEMP:  49; 6HR MAX TEMP:  55;

WAUPACA        MOCLDY    55  46  70 SW18G24   29.85F
6HR MIN TEMP:  54; 6HR MAX TEMP:  59;

WAUTOMA        CLEAR     52  45  77 SW13        N/A
6HR MIN TEMP:  52; 6HR MAX TEMP:  59;

WISC RAPIDS    CLEAR     50  45  83 W9        29.88S
6HR MIN TEMP:  50; 6HR MAX TEMP:  55;

CAMP DOUGLAS   PTCLDY    50  45  81 W14       29.91S
$$

WIZ011>013-019>022-031-037>040-048>050-261300-
NORTHEAST WISCONSIN

CITY           SKY/WX    TMP DP  RH WIND       PRES   REMARKS
ANTIGO         CLOUDY    49  45  86 W16G22    29.78S
6HR MIN TEMP:  48; 6HR MAX TEMP:  53;

SHAWANO        MOCLDY    53  45  75 SW8       29.80F
6HR MIN TEMP:  52; 6HR MAX TEMP:  60;

OCONTO         NOT AVBL
STURGEON BAY   CLOUDY    54  45  71 SW14G21   29.80S
6HR MIN TEMP:  54; 6HR MAX TEMP:  61;

GREEN BAY      CLEAR     52  46  80 SW10      29.82F
6HR MIN TEMP:  52; 6HR MAX TEMP:  60;

MANITOWOC      MOCLDY    55  44  66 MISG      29.85F
6HR MIN TEMP:  55; 6HR MAX TEMP:  63;

APPLETON       MOCLDY    54  43  66 SW14      29.84S
CLINTONVILLE   NOT AVBL
OSHKOSH        CLEAR     53  46  77 W8        29.86F
6HR MIN TEMP:  53; 6HR MAX TEMP:  60;

$$

WIZ032>034-041-042-053>061-261300-
SOUTHWEST WISCONSIN

CITY           SKY/WX    TMP DP  RH WIND       PRES   REMARKS
LA CROSSE      PTCLDY    54  43  66 W14       29.95S
6HR MIN TEMP:  54; 6HR MAX TEMP:  59;

SPARTA         CLEAR     49  45  84 W6        29.93F
6HR MIN TEMP:  49; 6HR MAX TEMP:  55;

VIROQUA        PTCLDY    47  43  84 W7        29.96S
6HR MIN TEMP:  47; 6HR MAX TEMP:  54;

BOSCOBEL       CLEAR     51  44  77 SW5       29.99S
6HR MIN TEMP:  51; 6HR MAX TEMP:  60;

PRAIRIE DU CHI CLEAR     52  41  67 W9G16     30.00S
6HR MIN TEMP:  52; 6HR MAX TEMP:  57;

PLATTEVILLE    CLEAR     50  46  85 W6        30.02R
6HR MIN TEMP:  50; 6HR MAX TEMP:  58;

$$

WIZ056-057-062-063-064-067-068-261300-
SOUTH CENTRAL WISCONSIN

CITY           SKY/WX    TMP DP  RH WIND       PRES   REMARKS
REEDSBURG      NOT AVBL
BARABOO/DELLS  CLEAR     50  43  76 SW8       29.93F
6HR MIN TEMP:  50; 6HR MAX TEMP:  57;

LONE ROCK      CLEAR     50  45  83 W6        29.98R
6HR MIN TEMP:  50; 6HR MAX TEMP:  60;

MINERAL POINT  CLEAR     50  46  87 W8        29.99R
MADISON        PTCLDY    53  45  74 VRB6      29.95S
6HR MIN TEMP:  53; 6HR MAX TEMP:  60;

MIDDLETON      CLEAR     52  46  80 W9        29.97R
6HR MIN TEMP:  52; 6HR MAX TEMP:  60;

WATERTOWN      CLEAR     52  49  90 W9        29.94S
6HR MIN TEMP:  52; 6HR MAX TEMP:  60;

MONROE         CLEAR     52  45  76 SW15      29.99R
JANESVILLE     CLEAR     54  48  82 W9        29.98R
$$

WIZ051-052-058>065-066-070>072-261300-
SOUTHEAST WISCONSIN

CITY           SKY/WX    TMP DP  RH WIND       PRES   REMARKS
MILWAUKEE      CLOUDY    59  49  69 W14       29.94R
6HR MIN TEMP:  59; 6HR MAX TEMP:  64;

WAUKESHA       CLEAR     54  48  82 W9        29.95R
MILWAUKEE/TIMM CLOUDY    55  46  71 W9        29.94R
RACINE         CLOUDY    57  49  74 W8        29.96S
6HR MIN TEMP:  57; 6HR MAX TEMP:  63;

BURLINGTON     CLOUDY    53  47  82 SW8       29.96S
6HR MIN TEMP:  53; 6HR MAX TEMP:  60;

KENOSHA        CLOUDY    56  50  80 W9        29.96R
6HR MIN TEMP:  56; 6HR MAX TEMP:  63;

FOND DU LAC    PTCLDY    53  47  79 SW10      29.90S
6HR MIN TEMP:  53; 6HR MAX TEMP:  61;

SHEBOYGAN      CLOUDY    54  46  74 SW13      29.88S
6HR MIN TEMP:  54; 6HR MAX TEMP:  61;

WEST BEND      CLOUDY    54  46  76 SW12      29.90F
JUNEAU         CLEAR     51  47  87 SW13      29.94R
6HR MIN TEMP:  51; 6HR MAX TEMP:  59;

$$

LSZ147-162-261300-
LAKE SUPERIOR

STATION/POSITION TIME  TEMP    WIND        PRES    WAVE
                       AIR SEA DIR/SP/G            HT/PER
                 (UTC) (F)     (DEG/KT/KT) (MB)    (FT/S)
W MID LAKE BUOY  1150   54 59  250/ 27/ 31  999.4F   8/ 7
DEVILS ISLAND    1200   54     250/ 26/ 34 1002.5F
SAXON HARBOR     1140   52     220/ 12/ 17 1004.7F
$$

LMZ867-665-643>646-261300-
LAKE MICHIGAN

STATION/POSITION TIME  TEMP    WIND        PRES    WAVE
                       AIR SEA DIR/SP/G            HT/PER
                 (UTC) (F)     (DEG/KT/KT) (MB)    (FT/S)
CHAMBERS ISLAND  1100   55     220/ 12/ 20 1007.5R
S GREEN BAY BUOY 1130   57 65  230/ 21/ 27 1008.7
N MID LAKE BUOY  1150   59 67  240/ 23/ 27 1005.8R   4/ 6
NORTHPORT PIER   1100   57     270/  7/ 16 1007.5S
KEWAUNEE LAKESHO 1200   54     250/  9C1F1C2F2C3F3C4F4C5F5C6F6C7F7C8M1C9M2Ca!



USA.gov is the U.S. government's official web portal to all federal, state and local government web resources and services.